Location: Unspecified
(0.0000°N, 0.0000°E)
Time: 08:08:57
(UTC+02:00)

HO-68 - Visible Passes

Search period start: 30 July 2015 00:00
Search period end: 09 August 2015 00:00
Orbit: 1193 x 1205 km, 100.2° (Epoch: 29 July)

Date Brightness Start Highest point End Pass type
(mag) Time Alt. Az. Time Alt. Az. Time Alt. Az.
30 Jul ? 21:04:41 15° E 21:05:39 16° ENE 21:09:51 10° NE visible
30 Jul ? 22:54:08 51° W 22:54:08 51° W 23:00:13 10° NNW visible
31 Jul ? 22:36:59 72° WNW 22:36:59 72° WNW 22:43:34 10° NNW visible
01 Aug ? 22:19:51 77° NE 22:19:51 77° NE 22:26:42 10° N visible
02 Aug ? 22:02:42 55° ENE 22:02:42 55° ENE 22:09:39 10° N visible
02 Aug ? 23:52:09 14° W 23:52:09 14° W 23:53:56 10° WNW visible
03 Aug ? 21:45:34 38° E 21:45:49 39° ENE 21:52:22 10° N visible
03 Aug ? 23:35:01 21° W 23:35:01 21° W 23:38:35 10° NW visible
04 Aug ? 21:28:25 27° E 21:28:54 27° ENE 21:34:48 10° NNE visible
04 Aug ? 23:17:53 30° W 23:17:53 30° W 23:22:38 10° NW visible
05 Aug ? 21:11:17 18° E 21:11:58 18° ENE 21:16:49 10° NE visible
05 Aug ? 23:00:45 43° WNW 23:00:45 43° WNW 23:06:20 10° NNW visible
06 Aug ? 20:54:10 11° E 20:55:02 12° ENE 20:57:48 10° NE visible
06 Aug ? 22:43:37 61° WNW 22:43:37 61° WNW 22:49:47 10° NNW visible
07 Aug ? 22:26:29 77° N 22:26:29 77° N 22:33:01 10° NNW visible
08 Aug ? 22:09:21 63° ENE 22:09:21 63° ENE 22:16:02 10° N visible
08 Aug ? 23:58:48 11° W 23:58:48 11° W 23:59:13 10° W visible
